Simultaneous Nadir Overpasses (SNOs) Predictions

Prediction of SNOs between AQUA and METOP-C Satellite Orbit:

Table of predicted SNOs for the next 14.0 days since TLE Epoch: 6/14/2019
Index Date (AQUA) Time (AQUA) Lat,Lon (AQUA) SZA (AQUA ) Date (METOP-C) Time (METOP-C) Lat,Lon (METOP-C) SZA (METOP-C ) Distance(km) Time Diff (sec)
1 06/15/2019 07:22:35 -73.74,-116.18 129.56 06/15/2019 07:21:27 -73.76,-116.15 129.53 3.01 68
2 06/15/2019 08:12:04 73.82, 51.27 50.53 06/15/2019 08:12:05 73.81, 51.31 50.52 1.76 1
3 06/15/2019 09:01:32 -73.94,-141.35 129.35 06/15/2019 09:02:45 -73.94,-141.06 129.37 8.99 73
4 06/18/2019 02:56:50 -73.77, -49.82 129.62 06/18/2019 02:55:50 -73.77, -49.72 129.61 3.04 60
5 06/18/2019 03:46:18 73.81, 117.73 50.43 06/18/2019 03:46:28 73.83, 117.75 50.44 1.39 10
6 06/18/2019 04:35:53 -74.28, -75.70 129.07 06/18/2019 04:37:01 -74.29, -73.77 129.13 58.04 68
7 06/20/2019 22:31:04 -73.76, 16.65 129.67 06/20/2019 22:30:13 -73.78, 16.71 129.64 3.28 51
8 06/20/2019 23:20:32 73.81,-175.82 50.39 06/20/2019 23:20:51 73.84,-175.82 50.42 3.14 19
9 06/23/2019 18:05:18 -73.75, 83.12 129.66 06/23/2019 18:04:37 -73.74, 83.02 129.65 3.06 41
10 06/23/2019 18:54:47 73.86,-109.49 50.47 06/23/2019 18:55:14 73.85,-109.39 50.45 3.43 27
11 06/26/2019 13:39:32 -73.79, 149.46 129.54 06/26/2019 13:38:58 -73.80, 149.56 129.53 3.44 34
12 06/26/2019 14:29:00 73.86, -43.05 50.54 06/26/2019 14:29:36 73.86, -42.95 50.53 3.16 36




NCC Satellite Simultaneous Nadir Overpasses (SNOs) Prediction Service
